Weather History for TIST - February, 2014

Change the Weather History Date:

Sunday, February 16, 2014

  Actual Average Record
Temperature  
Mean Temperature 79 °F 79 °F  
Max Temperature 84 °F 85 °F 91 °F (1996)
Min Temperature 74 °F 73 °F 65 °F (1978)
Degree Days  
Heating Degree Days 0 0  
Month to date heating degree days 0 0  
Since 1 July heating degree days 0 0  
Cooling Degree Days 14 14  
Month to date cooling degree days 229 224  
Year to date cooling degree days 650 652  
Growing Degree Days 28 (Base 50)    
Moisture  
Dew Point 68 °F    
Average Humidity 69    
Maximum Humidity 82    
Minimum Humidity 55    
Precipitation  
Precipitation 0.09 in 0.05 in 0.58 in (2015)
Month to date precipitation 1.02 0.85  
Year to date precipitation 2.04 3.23  
Sea Level Pressure  
Sea Level Pressure 30.06 in    
Wind  
Wind Speed 11 mph (ESE)    
Max Wind Speed 21 mph    
Max Gust Speed 26 mph    
Visibility 9 miles    
Events Rain    
T = Trace of Precipitation, MM = Missing Value Source: NWS Daily Summary

Daily Weather History Graph

Daily Weather History Graph

Search for Another Location

Airport or City:

Trip Planner

Search our weather history database for the weather conditions in past years. The results will help you decide how hot, cold, wet, or windy it might be!

Date:

Astronomy

Feb. 16, 2014 Rise Set
Actual Time 6:46 AM AST 6:21 PM AST
Civil Twilight 6:24 AM AST 6:43 PM AST
Nautical Twilight 5:59 AM AST 7:09 PM AST
Astronomical Twilight 5:33 AM AST 7:34 PM AST
Moon 7:51 PM AST (2/16) 7:33 AM AST (2/16)
Length of Visible Light 12h 18m
Length of Day
11h 34m
Full, 97% of the Moon is Illuminated
Feb 16
Full
Feb 22
Last Quarter
Mar 1
New
Mar 8
First Quarter
Mar 16
Full

Hourly Weather History & Observations

Time (AST) Temp. Heat Index Dew Point Humidity Pressure Visibility Wind Dir Wind Speed Gust Speed Precip Events Conditions
12:53 AM 77.0 °F - 69.1 °F 76% 30.08 in 10.0 mi East 6.9 mph - N/A   Overcast
1:53 AM 75.9 °F - 69.1 °F 79% 30.06 in 10.0 mi East 5.8 mph - N/A   Mostly Cloudy
2:53 AM 77.0 °F - 68.0 °F 74% 30.04 in 10.0 mi East 9.2 mph - N/A   Mostly Cloudy
3:53 AM 77.0 °F - 68.0 °F 74% 30.04 in 10.0 mi East 8.1 mph - N/A   Overcast
4:53 AM 75.0 °F - 68.0 °F 79% 30.05 in 10.0 mi East 5.8 mph - N/A   Scattered Clouds
5:53 AM 75.0 °F - 68.0 °F 79% 30.05 in 10.0 mi East 6.9 mph - N/A   Clear
6:53 AM 75.0 °F - 68.0 °F 79% 30.06 in 10.0 mi East 8.1 mph - N/A   Mostly Cloudy
7:53 AM 77.0 °F - 66.9 °F 71% 30.08 in 10.0 mi East 8.1 mph - N/A   Mostly Cloudy
8:53 AM 79.0 °F - 68.0 °F 69% 30.09 in 10.0 mi East 9.2 mph - 0.00 in   Mostly Cloudy
9:34 AM 75.2 °F - 71.6 °F 89% 30.11 in 2.5 mi SE 18.4 mph 26.5 mph 0.05 in Rain Rain
9:39 AM 73.4 °F - - N/A% 30.11 in 1.8 mi East 17.3 mph 26.5 mph 0.07 in Rain Heavy Rain
9:43 AM 73.4 °F - 69.8 °F 88% - 2.0 mi ESE 12.7 mph 21.9 mph 0.09 in Rain Rain
9:53 AM 73.9 °F - 71.1 °F 91% 30.12 in 5.0 mi East 9.2 mph - 0.09 in Rain Light Rain
10:53 AM 78.1 °F - 70.0 °F 76% 30.11 in 10.0 mi Variable 4.6 mph - 0.00 in   Overcast
11:53 AM 81.0 °F 84.4 °F 70.0 °F 69% 30.08 in 10.0 mi SSE 13.8 mph - N/A   Scattered Clouds
12:53 PM 82.0 °F 85.9 °F 70.0 °F 67% 30.05 in 10.0 mi SSE 17.3 mph - N/A   Clear
1:53 PM 82.0 °F 85.5 °F 69.1 °F 65% 30.03 in 10.0 mi SE 16.1 mph 23.0 mph N/A   Scattered Clouds
2:53 PM 82.0 °F 84.1 °F 66.0 °F 58% 30.01 in 10.0 mi SE 16.1 mph 23.0 mph N/A   Overcast
3:53 PM 82.0 °F 83.8 °F 64.9 °F 56% 30.00 in 10.0 mi SE 12.7 mph 21.9 mph N/A   Overcast
4:53 PM 82.0 °F 84.1 °F 66.0 °F 58% 30.01 in 10.0 mi SE 16.1 mph - N/A   Overcast
5:53 PM 80.1 °F 82.7 °F 68.0 °F 67% 30.01 in 10.0 mi East 11.5 mph - N/A   Mostly Cloudy
6:53 PM 75.9 °F - 70.0 °F 82% 30.02 in 10.0 mi East 15.0 mph - 0.00 in   Scattered Clouds
7:53 PM 77.0 °F - 69.1 °F 76% 30.04 in 10.0 mi ESE 15.0 mph - N/A   Clear
8:53 PM 77.0 °F - 68.0 °F 74% 30.06 in 10.0 mi ESE 10.4 mph - N/A   Clear
9:53 PM 75.9 °F - 68.0 °F 76% 30.07 in 10.0 mi ESE 9.2 mph - N/A   Partly Cloudy
10:53 PM 77.0 °F - 66.9 °F 71% 30.06 in 10.0 mi East 8.1 mph - N/A   Overcast
11:53 PM 77.0 °F - 66.9 °F 71% 30.05 in 10.0 mi East 11.5 mph - N/A   Partly Cloudy